Torna al catalogo

SECOR 3

AttivoScienzaLEO
NORAD 1208·PAYLOAD·🇺🇸 United States

Lanciato Mar 9, 1965 da Vandenberg Space Force Base

Loading…

Prossimi Passaggi (prossime 24 ore)

TLE

AggiornatoSource: Space-Track

Epoca: Sep 13, 2026, 17:28 UTC

1 01208U 65016E   26256.72820251  .00000023  00000-0  54871-4 0  9991
2 01208  70.0824 355.5162 0021793 323.2623 198.2780 13.96091196131526

Traccia SECOR 3 in tempo reale con AllMySat

Download on the App Store